星链-5914 (STARLINK-5914 )

导读

STARLINK-5914是美国SpaceX公司星链(Starlink)卫星互联网项目的组网卫星,于北京时间2023年3月17日发射入轨。作为星链低轨通信星座的一员,它配备霍尔推进器与自主避撞系统,运行于近地轨道,为全球偏远、无网络覆盖区域提供低延迟、高速宽带互联网服务,助力构建全球卫星通信网络。星链项目计划部署数万颗这类卫星,也引发了天文观测、太空碎片等领域的争议与讨论。

基本信息
目录编号:
55941
目录名称:
STARLINK-5914
国际标识:
2023-037AD
轨道中心:
EARTH
卫星名称:
星链-5914
卫星全名:
星链-5914 (STARLINK-5914 )
卫星状态:
在轨 (已飞行1275 天)
发射日期:
2023-03-17 UTC
国别 :
美国 (US)
星等 :
--
该卫星已列入 空间交会检测服务 Space Conjunction Data Service (SCDS) ,当前飞行风险评估等级: 无高风险
轨道信息
数据来源 国际轨道数据
星历时间: 2026-09-12T12:44:15+0800
11小时前
查看轨道信息
半长轴: 6950.194km
偏心率: 0.0002891
轨道倾角: 70.000°
近地点辐角 267.338°
升交点赤经 174.349°
平近点角 92.744°
近地点: 570.047km
远地点: 574.067km
周期: 96.107分钟
每日圈数: 14.983299
详细信息
固有亮度:
5
最大亮度:
2.5
卫星平台:
Starlink v1.5
覆盖范围:
全球
运营商:
太空探索技术公司
运营商所在国:
美国
制造商(研发单位):
太空探索技术公司
制造商所在国:
美国
使用方式:
暂无
卫星简介
星链(Starlink)计划是由太空探索技术公司(SpaceX)提出的一个巨型低轨卫星互联网星座项目,计划在2019年至2024年间在太空搭建由约1.2万颗卫星组成的“星链”网络,其中1584颗将部署在地球上空550千米处的近地轨道,并从2020年开始工作。该卫星仍在工作。
2D轨道图
3D轨道图
轨道高度分析图
轨道倾角分析图
轨道综合分析图
查看轨道综合分析图
交会数据列表
事件ID 空间交会对象 最接近时刻(TCA) 交会距离 交会风险概率(CRP) 交会风险指数(CRI) 操作
CDM_260913-145105-594106-487222
2026-09-13T
14:51:51+0000
2.500 km
极远距离
1.737426E-6 低风险 0.4
与全量物体交会距离演化趋势
与全量物体交会风险概率演化趋势